Probability
0 0 0 0 0 0 0 0 0 0 0 0 0 0 0 0 0 0 0 0 0 0 0 0 0 0 0 0 0 0 0 0 0 0 0 0 0 0 0 0 0 0 0
0 0 0 0 0 0 0 0 0 0 0 0 0 0 0 0 0 0 0 0 0 0 0 0 0 0 0 0 0 0 0 0 0 0 0 0 0 0 0 0 0 0 0
0 0 0 0 0 0 0 0 0 0 0 0 0 0 0 0 0 0 0 0 0 0 0 0 0 0 0 0 0 0 0 0 0 0 0 0 0 0 0 0 0 0 0
0 0 0 0 0 0 0 0 0 0 0 0 0 0 0 0 0 0 0 0 0 0 0 0 0 0 0 0 0 0 0 0 0 0 0 0 0 0 0 0 0 0 0
0 0 0 0 0 0 0 0 0 0 0 0 0 0 0 0 0 0 0 0 0 0 0 0 0 0 0 0 0 0 0 0 0 0 0 0 0 0 0 0 0 0 0
0 0 0 0 0 0 0 0 0 0 0 0 0 0 0 0 0 0 0 0 0 0 0 0 0 0 0 0 0 0 0 0 0 0 0 0 0 0 0 0 0 0 0
0 0 0 0 0 0 0 0 0 0 0 0 0 0 0 0 0 0 0 0 0 0 0 0 0 0 1 1 1 0 0 0 0 0 0 0 2 3 3 1 0 0 0
1 1 1 1 0 0 0 0 0 0 0 0 0 0 0 0 0 0 0 0 1 1 1 1 1 1 1 2 2 2 2 1 0 0 0 1 7 14 13 6 1 0 0
8 7 3 0 0 0 0 0 0 0 0 0 0 0 0 0 0 0 1 2 3 3 2 2 1 1 1 1 2 2 3 3 1 0 0 6 23 36 32 16 5 1 0
18 13 5 0 0 0 0 0 1 1 0 0 0 0 0 0 2 7 12 13 12 11 11 10 7 4 4 5 6 7 7 4 1 0 2 18 48 65 55 33 15 5 2
22 16 8 6 6 2 3 5 4 2 2 2 3 6 7 4 4 14 29 37 40 39 38 35 27 19 12 10 17 24 19 8 2 0 7 35 70 86 76 55 31 13 6
20 15 15 24 23 10 11 19 12 9 16 17 17 25 31 23 12 17 40 64 75 74 68 61 51 37 22 16 26 43 38 18 4 2 18 53 85 95 89 71 48 27 14
21 16 24 45 45 24 24 34 26 27 43 47 43 52 61 54 35 27 48 78 91 92 82 71 66 53 35 27 34 52 54 34 17 16 37 72 94 98 94 80 60 39 24
30 25 36 63 67 47 42 48 47 49 66 74 73 74 81 82 65 53 64 83 90 91 84 75 74 70 54 44 46 55 61 54 41 43 64 87 98 99 96 86 67 45 32
49 44 56 79 87 77 66 65 65 69 76 83 87 89 91 93 86 77 81 87 85 84 81 77 79 80 72 62 58 57 59 63 63 68 82 93 98 98 96 90 76 55 42
71 70 79 92 98 94 86 80 76 77 79 81 86 91 92 93 90 86 84 85 81 76 73 72 74 78 76 70 65 58 53 58 69 78 85 91 96 97 96 92 84 70 58
90 91 93 97 98 98 95 89 80 73 73 78 81 83 82 81 79 74 71 72 72 69 66 64 65 69 69 67 64 57 50 53 65 76 81 85 88 91 92 90 85 77 71
99 99 98 97 98 99 96 88 75 66 65 68 70 72 68 61 54 51 49 52 55 55 53 53 55 58 61 61 59 57 54 56 62 69 74 76 77 78 83 84 82 79 76
99 99 98 97 98 98 92 79 67 61 56 51 53 57 53 38 29 27 28 32 36 36 37 40 43 46 51 53 52 52 56 59 61 63 67 69 68 66 68 73 77 78 79
97 97 97 98 98 95 86 72 62 55 45 36 37 44 37 21 13 13 14 17 19 19 22 27 31 34 38 42 42 45 50 55 58 62 67 70 66 61 58 63 71 76 77
94 93 93 94 92 89 81 70 61 53 39 27 31 37 28 13 7 6 5 6 7 8 11 15 19 22 25 28 34 36 38 44 53 62 71 75 71 64 58 60 68 73 75
89 86 85 85 82 79 76 69 60 54 43 34 38 45 35 19 10 6 4 2 1 2 4 6 10 13 15 20 28 32 30 34 44 56 69 77 76 71 65 60 64 69 71
79 76 76 78 77 76 75 68 60 56 53 51 56 61 53 35 21 14 9 5 2 1 1 2 5 7 10 13 21 29 29 28 32 41 52 63 71 75 70 61 58 61 63
66 69 73 77 79 80 79 75 69 67 68 70 72 76 69 54 40 29 21 15 10 6 2 1 2 4 6 7 13 21 25 24 24 25 28 37 53 67 70 65 58 55 55
58 63 71 76 80 82 84 84 83 82 84 84 83 84 80 71 62 51 41 35 27 18 9 5 4 4 5 6 8 11 14 17 18 15 11 16 28 46 62 68 65 59 57
53 58 66 74 79 82 85 88 88 90 93 91 88 88 86 81 75 66 58 52 42 27 16 10 7 4 6 9 10 7 8 11 14 12 7 7 14 30 53 69 72 68 64
Wind_Speed
19 18 19 15 13 13 14 15 15 14 13 12 12 11 11 11 11 11 11 11 10 10 10 9 9 9 9 9 9 9 9 9 9 10 11 11 11 9 8 7 4 9 12
21 19 19 16 14 14 14 15 14 14 13 12 12 11 10 10 10 10 9 9 9 9 9 8 8 8 8 8 8 8 7 6 6 7 8 10 10 8 8 8 9 9 11
20 19 17 15 14 14 14 14 14 14 13 12 12 11 10 9 9 9 8 8 8 8 8 7 7 7 7 7 7 6 5 4 3 3 6 6 9 9 8 8 10 10 9
20 17 16 17 15 14 14 13 14 13 13 12 11 10 10 9 8 8 7 7 7 7 7 7 6 6 6 6 5 5 4 2 3 5 6 5 8 11 9 7 7 7 7
18 16 17 18 16 15 14 13 13 13 12 12 11 10 9 8 7 7 6 6 6 6 6 6 6 6 6 5 5 4 4 3 5 8 8 2 8 12 10 8 6 6 6
18 17 18 17 16 15 13 12 12 12 11 11 10 9 8 7 7 6 6 5 5 5 5 5 6 6 6 6 6 6 5 6 7 8 7 4 9 12 12 10 7 6 6
18 17 18 17 16 14 13 12 11 11 10 10 9 8 7 7 6 6 6 6 6 6 6 6 6 7 7 8 8 8 8 8 8 8 6 3 10 15 14 12 9 8 8
19 18 17 17 16 15 13 12 11 10 10 9 9 8 8 7 7 7 8 8 8 8 8 8 8 8 9 9 10 10 10 11 10 10 8 4 13 17 15 13 11 10 9
20 18 15 15 14 14 14 13 12 11 10 9 9 9 9 9 9 10 10 10 10 10 10 10 10 10 10 11 11 12 12 13 10 8 9 4 16 17 16 14 13 11 11
19 18 15 15 14 12 12 14 13 12 11 11 10 10 11 11 12 14 13 14 14 13 13 12 12 13 12 12 13 13 14 12 11 11 8 6 18 18 16 15 14 13 12
16 17 16 16 14 13 13 14 14 13 12 11 11 13 11 9 11 12 17 17 18 17 16 15 14 14 13 14 16 15 13 8 11 10 8 10 18 19 17 15 15 14 14
13 16 14 15 14 12 11 11 10 10 11 10 9 10 9 8 7 10 10 18 20 19 18 17 15 14 12 9 14 17 8 11 11 9 7 14 18 19 17 16 15 15 15
10 11 14 13 12 10 6 9 6 6 7 10 10 8 7 6 6 7 4 8 11 14 11 12 13 10 10 9 7 8 11 11 8 8 6 15 18 18 18 16 16 16 16
10 9 12 13 10 5 4 5 5 4 5 6 7 8 6 4 3 3 3 2 4 5 7 7 6 10 10 10 9 8 11 9 7 4 5 14 16 17 17 17 16 17 17
10 9 8 10 9 5 2 1 2 2 2 2 2 4 2 2 2 3 2 2 4 3 3 3 3 4 4 5 6 6 7 8 7 6 4 15 17 17 17 17 17 18 18
12 11 9 10 10 7 4 2 2 2 1 1 1 1 1 1 1 2 3 3 3 4 4 3 4 4 4 3 5 6 7 7 6 5 4 9 16 18 18 18 18 18 19
13 11 9 10 10 8 7 6 5 4 4 2 2 2 2 2 1 2 3 4 4 4 4 4 5 4 5 5 6 7 7 8 7 6 6 4 7 16 19 19 19 19 19
14 11 9 10 12 9 5 4 3 3 1 1 1 2 2 0 1 2 3 3 2 3 4 4 4 4 5 5 5 6 7 6 8 8 7 6 6 7 14 20 20 19 20
9 10 8 5 8 9 6 4 3 1 1 1 1 2 3 1 2 2 2 3 3 3 3 5 3 3 4 5 5 6 7 7 7 9 9 10 9 8 7 12 21 21 21
7 8 7 6 7 6 5 4 3 3 3 2 1 3 3 1 2 3 3 3 4 3 3 3 4 4 4 5 7 7 5 6 7 8 10 10 9 10 10 9 9 14 21
7 7 7 7 5 3 2 3 3 3 2 2 2 4 3 0 2 2 3 3 4 3 4 5 4 5 5 4 4 5 6 8 9 9 8 8 9 10 9 8 7 7 9
7 6 7 7 4 2 1 1 0 0 2 2 2 4 3 1 0 3 2 3 4 4 5 5 4 4 5 5 4 5 5 5 6 10 8 9 10 8 8 10 8 7 6
8 4 5 4 4 2 2 2 2 1 2 2 2 3 3 2 2 2 2 3 4 4 4 5 5 5 5 5 4 4 4 4 5 4 6 6 7 7 7 6 7 7 8
9 7 5 4 2 1 1 3 4 3 3 2 1 2 3 3 3 3 3 3 3 3 5 5 4 4 5 5 5 4 5 6 5 5 5 5 6 6 7 6 5 5 6
10 9 8 8 6 5 5 5 5 5 4 4 4 2 2 3 5 5 5 3 3 4 5 4 5 5 4 6 5 5 6 6 6 6 7 6 5 3 4 5 4 3 2
12 11 11 11 10 9 8 8 7 7 7 7 7 6 4 4 4 5 5 4 3 4 4 4 5 6 5 6 5 6 6 6 5 5 6 6 6 4 2 0 1 1 1
Wind_Direction
120 131 134 131 130 131 135 136 136 134 132 130 127 123 119 114 109 104 103 102 103 106 106 102 97 94 89 86 84 80 79 81 85 90 94 95 95 94 91 83 100 105 102
123 131 133 132 132 133 136 138 137 136 134 132 130 129 125 121 116 112 110 108 107 107 108 107 102 99 96 96 96 94 92 95 103 115 123 119 111 103 92 68 62 106 109
124 132 134 134 134 135 137 139 140 140 138 136 135 135 133 128 125 122 119 117 115 113 112 112 111 107 105 105 107 108 110 119 142 165 185 161 129 121 106 91 91 108 113
128 138 138 138 138 138 140 142 144 144 143 142 142 141 140 138 136 134 131 130 128 126 125 124 123 122 121 122 124 128 137 176 233 247 232 207 145 131 124 113 111 118 122
131 137 136 144 143 143 144 146 148 149 149 148 148 149 149 148 148 147 146 148 147 145 145 145 145 144 145 147 151 160 179 222 257 264 265 171 124 141 138 135 136 139 142
133 136 142 148 147 148 149 150 152 153 153 153 154 157 159 161 165 166 168 172 175 176 175 175 175 172 173 176 181 191 205 228 257 256 254 173 137 152 151 154 164 172 173
138 135 145 151 151 153 154 155 156 158 159 161 164 168 174 180 186 190 194 199 205 208 208 207 205 201 198 199 202 208 217 230 248 271 273 207 151 158 161 165 177 191 195
136 137 145 153 155 158 161 163 165 167 170 173 178 183 191 199 206 213 216 218 221 224 226 226 224 221 217 215 216 218 222 236 241 246 252 226 152 161 166 170 179 197 206
137 134 149 156 160 164 168 171 174 177 180 185 192 199 206 214 221 226 228 228 227 228 230 232 233 232 228 225 224 225 228 233 255 268 262 198 162 169 173 176 184 197 210
136 141 155 159 162 169 173 179 181 185 189 194 202 210 216 224 229 232 231 227 229 229 229 231 234 235 234 232 231 230 231 235 243 253 254 203 170 175 178 183 191 202 211
144 146 162 159 164 174 178 177 183 190 196 200 209 217 221 230 232 226 227 225 223 224 225 227 231 234 236 236 235 232 231 233 237 239 240 200 177 180 185 189 197 206 213
149 155 164 160 164 181 184 161 183 191 191 203 210 205 209 225 247 255 220 215 217 219 222 226 230 234 235 239 233 225 226 228 241 242 229 189 182 185 188 194 201 209 215
161 167 158 152 158 182 170 159 186 192 179 197 213 204 202 216 236 249 224 204 210 216 220 223 224 227 230 229 238 210 213 227 228 237 221 184 183 188 192 198 205 212 217
172 180 161 147 154 180 173 173 176 191 174 193 194 205 203 204 241 270 277 237 204 209 208 223 211 215 224 235 232 218 210 219 231 231 192 178 184 192 197 202 209 216 219
173 182 156 141 144 155 161 280 202 201 188 185 164 190 192 210 246 276 297 305 298 290 264 235 248 245 237 244 252 249 238 233 233 224 195 185 189 196 202 207 214 219 222
172 177 156 146 144 150 157 182 299 289 201 252 181 173 170 232 262 287 288 286 279 284 293 293 284 273 270 268 270 272 271 262 254 239 224 199 199 202 205 209 214 219 222
169 169 153 158 153 162 174 184 204 223 217 200 164 176 192 221 233 260 271 268 262 267 274 273 276 272 266 263 259 260 263 261 259 254 248 235 215 212 210 212 214 217 220
166 156 159 173 160 160 166 173 224 231 139 128 162 175 149 282 267 262 268 270 277 267 260 256 249 256 259 258 259 258 258 255 250 247 246 242 238 234 217 215 216 217 218
142 142 149 147 140 145 151 166 222 205 152 237 220 119 88 24 319 305 300 302 304 288 279 281 284 266 268 265 260 253 249 250 250 248 240 239 238 232 227 218 217 217 219
116 124 132 127 117 129 148 173 200 202 191 196 166 106 86 7 9 12 311 334 338 309 299 311 315 297 277 263 267 267 254 246 245 244 242 240 236 234 231 232 215 218 220
105 106 113 115 115 129 166 189 194 189 202 184 155 118 112 49 22 339 305 331 310 302 321 312 299 297 292 281 273 272 258 243 237 236 235 237 240 236 231 224 220 214 210
84 95 96 102 116 150 169 295 256 91 229 202 141 138 159 161 16 295 354 326 319 328 304 296 309 303 297 297 289 292 288 272 243 240 229 229 235 238 235 230 222 220 218
56 66 111 124 153 181 181 254 264 206 272 250 195 176 165 163 221 261 287 289 306 299 303 332 307 293 298 303 285 273 283 286 313 285 255 242 234 229 232 232 228 223 222
42 43 53 85 101 113 202 273 274 259 259 264 231 193 158 189 221 231 246 262 279 290 298 295 327 332 309 296 290 274 265 280 290 296 296 280 254 236 230 231 232 227 225
40 36 28 32 31 21 4 341 330 315 315 325 331 311 203 226 219 218 221 228 252 270 280 294 298 291 288 284 288 293 291 283 264 265 281 287 289 264 231 226 223 222 210
40 36 34 32 26 19 11 1 356 344 337 329 324 316 303 272 237 218 211 205 228 258 280 290 287 285 278 280 282 280 279 278 276 268 272 279 280 277 264 216 162 129 111